DLH101 EDDK-EDDN

Flight info

Callsign DLH101
Flight time 0h 42m
Altitude 21000
Route KUMIK2Q KUMIK L603 TESGA Z719 ETOLU Z723 KOMIB T193 ERTES T194 DODAS DODAS1T
Aircraft A320/M-SDE3FGHIRWY/LB1

Departure

Time 2026-04-22 09:01
Airport Cologne Bonn Airport (EDDK)

Arrival

Time 2026-04-22 09:43
Airport Nuremberg Airport (EDDN)
Time Latitude Longitude Altitude Speed Heading
2026-04-22 08:27 50.88105 7.12093 235 ft 0 kts 216°
2026-04-22 08:53 50.88110 7.12098 232 ft 4 kts 216°
2026-04-22 08:53 50.88132 7.12123 233 ft 4 kts 213°
2026-04-22 08:53 50.88155 7.12144 234 ft 4 kts 199°
2026-04-22 08:53 50.88177 7.12148 233 ft 4 kts 141°
2026-04-22 08:54 50.88182 7.12142 236 ft 0 kts 126°
2026-04-22 08:57 50.88166 7.12176 233 ft 8 kts 126°
2026-04-22 08:57 50.88120 7.12275 232 ft 12 kts 126°
2026-04-22 08:57 50.88066 7.12396 232 ft 16 kts 123°
2026-04-22 08:58 50.88007 7.12556 232 ft 17 kts 120°
2026-04-22 08:58 50.87993 7.12739 239 ft 13 kts 72°
2026-04-22 08:58 50.87998 7.12763 236 ft 0 kts 72°
2026-04-22 08:59 50.88000 7.12772 237 ft 4 kts 72°
2026-04-22 08:59 50.88009 7.12865 239 ft 11 kts 93°
2026-04-22 08:59 50.87982 7.12990 239 ft 13 kts 121°
2026-04-22 09:00 50.87915 7.13100 239 ft 15 kts 137°
2026-04-22 09:00 50.87907 7.13112 239 ft 0 kts 137°
2026-04-22 09:00 50.87905 7.13115 239 ft 4 kts 137°
2026-04-22 09:00 50.87728 7.13374 239 ft 72 kts 137°
2026-04-22 09:01 50.87205 7.14132 247 ft 129 kts 137°
2026-04-22 09:01 50.86707 7.14855 272 ft 158 kts 136°
2026-04-22 09:01 50.85603 7.16501 1107 ft 164 kts 136°
2026-04-22 09:01 50.84720 7.17655 1997 ft 165 kts 139°
2026-04-22 09:02 50.83822 7.18840 2528 ft 175 kts 136°
2026-04-22 09:02 50.82852 7.20208 2827 ft 198 kts 136°
2026-04-22 09:02 50.82203 7.21285 3045 ft 209 kts 122°
2026-04-22 09:02 50.81687 7.23492 3638 ft 218 kts 103°
2026-04-22 09:03 50.81415 7.25887 4293 ft 231 kts 98°
2026-04-22 09:03 50.81152 7.28503 4883 ft 247 kts 98°
2026-04-22 09:03 50.80973 7.31227 5797 ft 251 kts 88°
2026-04-22 09:03 50.81080 7.33996 6774 ft 253 kts 86°
2026-04-22 09:04 50.81186 7.36789 7648 ft 256 kts 86°
2026-04-22 09:04 50.81291 7.39617 8564 ft 259 kts 86°
2026-04-22 09:04 50.81396 7.42470 9445 ft 262 kts 86°
2026-04-22 09:04 50.81504 7.45368 10304 ft 265 kts 86°
2026-04-22 09:05 50.81615 7.48346 10798 ft 282 kts 86°
2026-04-22 09:05 50.81736 7.51568 11040 ft 305 kts 86°
2026-04-22 09:05 50.81862 7.55008 11250 ft 328 kts 86°
2026-04-22 09:05 50.81995 7.58663 11773 ft 337 kts 86°
2026-04-22 09:06 50.82132 7.62394 12456 ft 341 kts 86°
2026-04-22 09:06 50.82270 7.66168 13164 ft 345 kts 85°
2026-04-22 09:06 50.82407 7.69983 13883 ft 349 kts 85°
2026-04-22 09:06 50.82545 7.73846 14527 ft 353 kts 85°
2026-04-22 09:07 50.82678 7.77680 15567 ft 340 kts 85°
2026-04-22 09:07 50.82798 7.81307 16952 ft 321 kts 85°
2026-04-22 09:07 50.82908 7.84719 18347 ft 301 kts 85°
2026-04-22 09:07 50.83011 7.87929 19563 ft 281 kts 85°
2026-04-22 09:08 50.83106 7.90922 20613 ft 267 kts 84°
2026-04-22 09:08 50.83202 7.93815 21167 ft 268 kts 84°
2026-04-22 09:08 50.83303 7.96748 21305 ft 266 kts 84°
2026-04-22 09:08 50.83394 7.99668 21332 ft 265 kts 86°
2026-04-22 09:09 50.83324 8.02592 21335 ft 268 kts 92°
2026-04-22 09:09 50.83038 8.05520 21334 ft 270 kts 99°
2026-04-22 09:09 50.82542 8.08373 21332 ft 276 kts 105°
2026-04-22 09:09 50.81813 8.11227 21327 ft 282 kts 111°
2026-04-22 09:10 50.80868 8.13964 21326 ft 285 kts 118°
2026-04-22 09:10 50.79762 8.16582 21326 ft 286 kts 119°
2026-04-22 09:10 50.78647 8.19205 21333 ft 287 kts 119°
2026-04-22 09:10 50.77539 8.21820 21330 ft 287 kts 119°
2026-04-22 09:11 50.76430 8.24445 21333 ft 287 kts 119°
2026-04-22 09:11 50.75320 8.27071 21334 ft 287 kts 119°
2026-04-22 09:11 50.74225 8.29662 21337 ft 287 kts 119°
2026-04-22 09:11 50.73117 8.32280 21338 ft 287 kts 119°
2026-04-22 09:12 50.72003 8.34908 21340 ft 287 kts 119°
2026-04-22 09:12 50.70800 8.37439 21348 ft 290 kts 126°
2026-04-22 09:12 50.69408 8.39761 21348 ft 293 kts 132°
2026-04-22 09:12 50.67842 8.41837 21355 ft 296 kts 138°
2026-04-22 09:13 50.66121 8.43643 21360 ft 299 kts 145°
2026-04-22 09:13 50.64284 8.45209 21376 ft 300 kts 147°
2026-04-22 09:13 50.62441 8.46760 21373 ft 300 kts 147°
2026-04-22 09:13 50.60604 8.48316 21371 ft 300 kts 147°
2026-04-22 09:14 50.58760 8.49878 21371 ft 301 kts 147°
2026-04-22 09:14 50.56917 8.51437 21369 ft 301 kts 147°
2026-04-22 09:14 50.55070 8.52993 21377 ft 301 kts 147°
2026-04-22 09:14 50.53220 8.54552 21373 ft 302 kts 147°
2026-04-22 09:15 50.51365 8.56110 21373 ft 302 kts 147°
2026-04-22 09:15 50.49514 8.57664 21367 ft 302 kts 147°
2026-04-22 09:15 50.47655 8.59219 21369 ft 302 kts 147°
2026-04-22 09:15 50.45809 8.60794 21366 ft 301 kts 144°
2026-04-22 09:16 50.44070 8.62595 21361 ft 299 kts 139°
2026-04-22 09:16 50.42483 8.64619 21358 ft 296 kts 134°
2026-04-22 09:16 50.40933 8.66754 21361 ft 297 kts 134°
2026-04-22 09:16 50.39379 8.68884 21364 ft 297 kts 134°
2026-04-22 09:17 50.37820 8.71010 21357 ft 297 kts 134°
2026-04-22 09:17 50.36258 8.73132 21352 ft 297 kts 134°
2026-04-22 09:17 50.34695 8.75252 21349 ft 297 kts 134°
2026-04-22 09:17 50.33131 8.77372 21355 ft 297 kts 134°
2026-04-22 09:18 50.31572 8.79493 21351 ft 297 kts 134°
2026-04-22 09:18 50.30102 8.81742 21344 ft 295 kts 128°
2026-04-22 09:18 50.28807 8.84212 21345 ft 293 kts 122°
2026-04-22 09:18 50.27694 8.86870 21338 ft 292 kts 116°
2026-04-22 09:19 50.26768 8.89676 21338 ft 290 kts 110°
2026-04-22 09:19 50.26009 8.92591 21337 ft 289 kts 107°
2026-04-22 09:19 50.25336 8.95553 21337 ft 289 kts 105°
2026-04-22 09:19 50.24701 8.98528 21336 ft 288 kts 104°
2026-04-22 09:20 50.24076 9.01509 21332 ft 289 kts 104°
2026-04-22 09:20 50.23445 9.04491 21332 ft 289 kts 105°
2026-04-22 09:20 50.22813 9.07433 21331 ft 289 kts 105°
2026-04-22 09:20 50.22168 9.10405 21333 ft 289 kts 105°
2026-04-22 09:21 50.21519 9.13372 21330 ft 289 kts 105°
2026-04-22 09:21 50.20866 9.16341 21330 ft 289 kts 105°
2026-04-22 09:21 50.20212 9.19307 21333 ft 289 kts 105°
2026-04-22 09:21 50.19561 9.22269 21342 ft 289 kts 105°
2026-04-22 09:22 50.18933 9.25249 21338 ft 288 kts 102°
2026-04-22 09:22 50.18477 9.28283 21333 ft 286 kts 96°
2026-04-22 09:22 50.18229 9.31350 21337 ft 284 kts 91°
2026-04-22 09:22 50.18179 9.34392 21337 ft 283 kts 85°
2026-04-22 09:23 50.18228 9.37467 21339 ft 283 kts 86°
2026-04-22 09:23 50.18270 9.40540 21338 ft 283 kts 86°
2026-04-22 09:23 50.18308 9.43619 21338 ft 283 kts 86°
2026-04-22 09:23 50.18154 9.46676 21335 ft 287 kts 103°
2026-04-22 09:24 50.17259 9.49476 21328 ft 294 kts 126°
2026-04-22 09:24 50.15873 9.51854 21335 ft 297 kts 129°
2026-04-22 09:24 50.14461 9.54206 21305 ft 298 kts 129°
2026-04-22 09:24 50.13043 9.56558 21135 ft 297 kts 129°
2026-04-22 09:25 50.11632 9.58895 20874 ft 296 kts 129°
2026-04-22 09:25 50.10227 9.61225 20555 ft 294 kts 129°
2026-04-22 09:25 50.08844 9.63521 20278 ft 293 kts 129°
2026-04-22 09:25 50.07453 9.65828 19976 ft 292 kts 129°
2026-04-22 09:26 50.06067 9.68130 19678 ft 291 kts 129°
2026-04-22 09:26 50.04685 9.70421 19382 ft 289 kts 129°
2026-04-22 09:26 50.03310 9.72703 19091 ft 288 kts 129°
2026-04-22 09:26 50.01939 9.74973 18801 ft 287 kts 129°
2026-04-22 09:27 50.00571 9.77231 18491 ft 286 kts 129°
2026-04-22 09:27 49.99205 9.79481 18164 ft 286 kts 129°
2026-04-22 09:27 49.97842 9.81726 17833 ft 285 kts 129°
2026-04-22 09:27 49.96482 9.83965 17507 ft 284 kts 129°
2026-04-22 09:28 49.95126 9.86200 17182 ft 283 kts 129°
2026-04-22 09:28 49.93796 9.88392 16886 ft 283 kts 129°
2026-04-22 09:28 49.92445 9.90617 16571 ft 283 kts 129°
2026-04-22 09:28 49.91097 9.92833 16254 ft 282 kts 129°
2026-04-22 09:29 49.89747 9.95047 15938 ft 282 kts 129°
2026-04-22 09:29 49.88400 9.97260 15631 ft 281 kts 129°
2026-04-22 09:29 49.87055 9.99465 15329 ft 281 kts 129°
2026-04-22 09:29 49.85709 10.01661 15055 ft 280 kts 129°
2026-04-22 09:30 49.84368 10.03858 14759 ft 280 kts 129°
2026-04-22 09:30 49.83029 10.06046 14465 ft 280 kts 129°
2026-04-22 09:30 49.81710 10.08200 14172 ft 279 kts 129°
2026-04-22 09:30 49.80373 10.10384 13855 ft 279 kts 129°
2026-04-22 09:31 49.79039 10.12564 13514 ft 278 kts 129°
2026-04-22 09:31 49.77708 10.14731 13191 ft 277 kts 129°
2026-04-22 09:31 49.76381 10.16882 12884 ft 276 kts 129°
2026-04-22 09:31 49.75059 10.19027 12571 ft 275 kts 129°
2026-04-22 09:32 49.73744 10.21161 12271 ft 273 kts 129°
2026-04-22 09:32 49.72433 10.23284 11956 ft 272 kts 129°
2026-04-22 09:32 49.71126 10.25400 11649 ft 270 kts 129°
2026-04-22 09:32 49.69832 10.27497 11345 ft 268 kts 129°
2026-04-22 09:33 49.68545 10.29583 11033 ft 267 kts 129°
2026-04-22 09:33 49.67286 10.31627 10742 ft 265 kts 129°
2026-04-22 09:33 49.66017 10.33683 10450 ft 264 kts 129°
2026-04-22 09:33 49.64755 10.35721 10151 ft 262 kts 129°
2026-04-22 09:34 49.63499 10.37745 9819 ft 259 kts 129°
2026-04-22 09:34 49.62255 10.39745 9500 ft 257 kts 130°
2026-04-22 09:34 49.61019 10.41730 9178 ft 255 kts 130°
2026-04-22 09:35 49.58591 10.45633 8545 ft 249 kts 130°
2026-04-22 09:35 49.57395 10.47558 8233 ft 247 kts 130°
2026-04-22 09:35 49.56228 10.49491 7922 ft 244 kts 124°
2026-04-22 09:35 49.55391 10.51717 7620 ft 238 kts 108°
2026-04-22 09:36 49.54989 10.54169 7316 ft 234 kts 98°
2026-04-22 09:36 49.54759 10.56602 7012 ft 231 kts 97°
2026-04-22 09:36 49.54540 10.59045 6718 ft 229 kts 97°
2026-04-22 09:36 49.54315 10.61468 6396 ft 227 kts 97°
2026-04-22 09:37 49.54090 10.63865 6134 ft 224 kts 97°
2026-04-22 09:37 49.53868 10.66222 5918 ft 221 kts 97°
2026-04-22 09:37 49.53649 10.68535 5736 ft 215 kts 97°
2026-04-22 09:37 49.53439 10.70762 5615 ft 207 kts 97°
2026-04-22 09:38 49.53232 10.72940 5380 ft 205 kts 97°
2026-04-22 09:38 49.53029 10.75077 5113 ft 198 kts 97°
2026-04-22 09:38 49.52832 10.77140 4876 ft 192 kts 97°
2026-04-22 09:38 49.52641 10.79148 4589 ft 186 kts 97°
2026-04-22 09:39 49.52456 10.81080 4329 ft 181 kts 96°
2026-04-22 09:39 49.52274 10.82984 4087 ft 180 kts 96°
2026-04-22 09:39 49.52091 10.84890 3835 ft 180 kts 96°
2026-04-22 09:39 49.51909 10.86789 3590 ft 178 kts 97°
2026-04-22 09:40 49.51733 10.88618 3346 ft 168 kts 96°
2026-04-22 09:40 49.51570 10.90302 3138 ft 153 kts 96°
2026-04-22 09:40 49.51419 10.91863 2929 ft 143 kts 96°
2026-04-22 09:40 49.51275 10.93362 2741 ft 140 kts 96°
2026-04-22 09:41 49.51132 10.94835 2544 ft 138 kts 95°
2026-04-22 09:41 49.50989 10.96311 2356 ft 140 kts 96°
2026-04-22 09:41 49.50846 10.97788 2178 ft 139 kts 95°
2026-04-22 09:41 49.50704 10.99252 1962 ft 138 kts 96°
2026-04-22 09:42 49.50563 11.00695 1753 ft 137 kts 97°
2026-04-22 09:42 49.50421 11.02163 1576 ft 143 kts 99°
2026-04-22 09:42 49.50272 11.03704 1330 ft 146 kts 99°
2026-04-22 09:42 49.50119 11.05226 1151 ft 144 kts 99°
2026-04-22 09:43 49.49971 11.06745 1063 ft 142 kts 99°
2026-04-22 09:43 49.49828 11.08201 1034 ft 126 kts 99°
2026-04-22 09:43 49.49747 11.09004 1043 ft 46 kts 99°
2026-04-22 09:43 49.49704 11.09389 1050 ft 32 kts 100°
2026-04-22 09:44 49.49632 11.09572 1052 ft 10 kts 193°
2026-04-22 09:44 49.49605 11.09517 1050 ft 7 kts 231°
2026-04-22 09:44 49.49571 11.09450 1048 ft 9 kts 234°
2026-04-22 09:44 49.49535 11.09357 1046 ft 11 kts 248°
2026-04-22 09:45 49.49536 11.09239 1043 ft 12 kts 277°
2026-04-22 09:45 49.49548 11.09112 1041 ft 12 kts 278°
2026-04-22 09:45 49.49562 11.08976 1039 ft 13 kts 278°
2026-04-22 09:45 49.49575 11.08839 1038 ft 13 kts 278°
2026-04-22 09:46 49.49588 11.08707 1037 ft 12 kts 279°
2026-04-22 09:46 49.49602 11.08579 1036 ft 12 kts 279°
2026-04-22 09:46 49.49614 11.08452 1034 ft 12 kts 278°
2026-04-22 09:46 49.49575 11.08356 1032 ft 12 kts 199°
2026-04-22 09:47 49.49539 11.08248 1028 ft 13 kts 276°
2026-04-22 09:47 49.49551 11.08114 1026 ft 12 kts 278°
2026-04-22 09:47 49.49561 11.08032 1026 ft 11 kts 279°
2026-04-22 09:47 49.49571 11.07918 1027 ft 10 kts 278°
2026-04-22 09:48 49.49582 11.07815 1027 ft 9 kts 278°
2026-04-22 09:48 49.49563 11.07735 1026 ft 8 kts 205°
2026-04-22 09:48 49.49529 11.07725 1023 ft 0 kts 188°
2026-04-22 09:48 49.49526 11.07725 1024 ft 0 kts 188°
2026-04-22 09:49 49.49525 11.07724 1024 ft 0 kts 188°